Weather History for Monroe, LA

Change the Weather History Date:

Friday, February 1, 2013

  Actual Average Record
Temperature  
Mean Temperature 41 °F 48 °F  
Max Temperature 49 °F 59 °F 80 °F (1989)
Min Temperature 33 °F 37 °F 11 °F (1949)
Degree Days  
Heating Degree Days 24 17  
Month to date heating degree days 24 17  
Since 1 July heating degree days 1306 1498  
Cooling Degree Days 0 0  
Month to date cooling degree days 0 0  
Year to date cooling degree days 13 4  
Moisture  
Dew Point 26 °F    
Average Humidity 58    
Maximum Humidity 79    
Minimum Humidity 37    
Precipitation  
Precipitation 0.00 in 0.17 in 1.70 in (1981)
Month to date precipitation 0.00 0.17  
Year to date precipitation 9.56 5.18  
Snow  
Snow 0.00 in - - ()
Month to date snowfall 0.0  
Since 1 July snowfall 0.3  
Snow Depth 0.00 in    
Sea Level Pressure  
Sea Level Pressure 30.40 in    
Wind  
Wind Speed 8 mph (NE)    
Max Wind Speed 17 mph    
Max Gust Speed 21 mph    
Visibility 10 miles    
Events      
T = Trace of Precipitation, MM = Missing Value Source: NWS Daily Summary

Daily Weather History Graph

Daily Weather History Graph

Search for Another Location

Airport:

Trip Planner

Search our weather history database for the weather conditions in past years. The results will help you decide how hot, cold, wet, or windy it might be!

Date:

Astronomy

Feb. 01, 2013 Rise Set
Actual Time 7:02 AM CST 5:41 PM CST
Civil Twilight 6:36 AM CST 6:07 PM CST
Nautical Twilight 6:07 AM CST 6:36 PM CST
Astronomical Twilight 5:38 AM CST 7:05 PM CST
Moon 11:24 PM CST (2/1) 9:58 AM CST (2/1)
Length of Visible Light 11h 30m
Length of Day
10h 39m
Waning Gibbous, 70% of the Moon is Illuminated
Feb 1
Waning Gibbous
Feb 3
Last Quarter
Feb 10
New
Feb 17
First Quarter
Feb 25
Full

Hourly Weather History & Observations

Time (CST) Temp. Windchill Dew Point Humidity Pressure Visibility Wind Dir Wind Speed Gust Speed Precip Events Conditions
12:53 AM 48.0 °F - 33.1 °F 56% 30.34 in 10.0 mi NNW 13.8 mph - N/A   Clear
1:53 AM 44.1 °F 40.8 °F 32.0 °F 63% 30.34 in 10.0 mi North 5.8 mph - N/A   Clear
2:53 AM 44.1 °F 38.6 °F 32.0 °F 63% 30.37 in 10.0 mi NNE 10.4 mph - N/A   Clear
3:53 AM 43.0 °F 37.7 °F 30.9 °F 62% 30.38 in 10.0 mi NNE 9.2 mph - N/A   Clear
4:53 AM 41.0 °F 35.2 °F 30.9 °F 67% 30.40 in 10.0 mi NNE 9.2 mph - N/A   Clear
5:53 AM 39.9 °F 33.4 °F 33.1 °F 77% 30.43 in 10.0 mi ENE 10.4 mph - N/A   Partly Cloudy
6:53 AM 36.0 °F 27.5 °F 26.1 °F 67% 30.45 in 10.0 mi NE 12.7 mph - N/A   Clear
7:53 AM 36.0 °F 29.6 °F 23.0 °F 59% 30.49 in 10.0 mi ENE 8.1 mph - N/A   Clear
8:53 AM 37.9 °F 29.6 °F 19.0 °F 47% 30.51 in 10.0 mi NE 13.8 mph - N/A   Clear
9:53 AM 39.0 °F 32.3 °F 19.0 °F 45% 30.51 in 10.0 mi ENE 10.4 mph - N/A   Clear
10:53 AM 41.0 °F 35.2 °F 19.9 °F 43% 30.50 in 10.0 mi East 9.2 mph - N/A   Clear
11:53 AM 45.0 °F 39.3 °F 23.0 °F 42% 30.48 in 10.0 mi NE 11.5 mph 20.7 mph N/A   Clear
12:53 PM 46.0 °F 40.6 °F 24.1 °F 42% 30.45 in 10.0 mi NE 11.5 mph - N/A   Clear
1:53 PM 46.9 °F - 26.1 °F 44% 30.42 in 10.0 mi NE 10.4 mph - N/A   Clear
2:53 PM 48.0 °F - 26.1 °F 42% 30.39 in 10.0 mi NE 13.8 mph - N/A   Clear
3:53 PM 48.0 °F - 25.0 °F 41% 30.38 in 10.0 mi East 6.9 mph 18.4 mph N/A   Clear
4:53 PM 46.9 °F - 21.9 °F 37% 30.39 in 10.0 mi ENE 6.9 mph - N/A   Clear
5:53 PM 41.0 °F 36.4 °F 25.0 °F 53% 30.37 in 10.0 mi ENE 6.9 mph - N/A   Clear
6:53 PM 39.9 °F 35.8 °F 25.0 °F 55% 30.36 in 10.0 mi ENE 5.8 mph - N/A   Clear
7:53 PM 36.0 °F 31.1 °F 27.0 °F 70% 30.36 in 10.0 mi ENE 5.8 mph - N/A   Clear
8:53 PM 37.9 °F 33.5 °F 25.0 °F 60% 30.35 in 10.0 mi East 5.8 mph - N/A   Clear
9:53 PM 37.9 °F 35.5 °F 26.1 °F 62% 30.35 in 10.0 mi Variable 3.5 mph - N/A   Clear
10:53 PM 37.0 °F - 26.1 °F 65% 30.35 in 10.0 mi Calm Calm - N/A   Clear
11:53 PM 35.1 °F - 28.0 °F 76% 30.33 in 10.0 mi Calm Calm - N/A   Clear